sat.trackr.live / text

‹ back to catalog

STARLINK-6126

NORAD 56124 · 2023-046AJ

PAYLOAD ACTIVE UNKNOWN

§ Identity

Operator
Country
US
Launch date
2023-03-29
Launch site
AFETR
Launch vehicle
Mass (kg)
RCS (m²)

Purposes: comms

External: N2YO · Heavens-Above · Gunter

§ Orbital elements

Epoch: 2026-05-25T03:52:21.501408Z

Period
94.27 min
Inclination
43.0033°
Eccentricity
0.0000952
Mean motion
15.27574394 rev/d
Perigee alt
482.4 km
Apogee alt
483.7 km
Semi-major
6,861.2 km
B*
1.1992e-5
RAAN
75.2775°
Arg perigee
245.8846°
Mean anomaly
114.1906°
Rev number
17,389

§ Raw data

STARLINK-61261 56124U 23046AJ  26145.16135997  .00000068  00000+0  11992-4 0  99912 56124  43.0033  75.2775 0000952 245.8846 114.1906 15.27574394173896

JSON: /api/v1/satellites/56124 · /tle

For live sub-satellite position, see the globe view (requires WebGL).

§ Visibility from observer

Set your observer location to see the next 7 days of passes ≥ 10°. The values pass through the URL so the page stays shareable.

No JS? Fill the form by hand. The geolocation button needs JavaScript.